• In Hungary
  • List of Countries
  • For 7 days
  • Water Temperature
  • Satellite Maps
  • Weather Map
  • News
  • Weather Widgets
  • user-avatar
    Login

    Hourly Weather Lemgo

    Today, 14 December, Thursday

    Time Temperature Precipitation Wind Pressure Humidity
    00:00 +3°C° 1.4 mm 7 mps 731 mmHg 88%
    01:00 +3°C° 0 mm 7 mps 730 mmHg 87%
    02:00 +2°C° 0 mm 6 mps 730 mmHg 86%
    03:00 +2°C° 0 mm 6 mps 730 mmHg 85%
    04:00 +1°C° 0 mm 6 mps 730 mmHg 84%
    05:00 +1°C° 0.2 mm 5 mps 731 mmHg 85%
    06:00 +1°C° 0.2 mm 5 mps 731 mmHg 86%
    07:00 0°C° 0 mm 5 mps 731 mmHg 86%
    08:00 -1°C° 0.6 mm 6 mps 732 mmHg 85%
    09:00 +1°C° 0.6 mm 6 mps 733 mmHg 84%
    10:00 0°C° 0.6 mm 7 mps 733 mmHg 84%
    11:00 0°C° 0.4 mm 7 mps 734 mmHg 83%
    12:00 0°C° 0.4 mm 7 mps 734 mmHg 82%
    13:00 +2°C° 0.4 mm 6 mps 734 mmHg 82%
    14:00 +2°C° 0.9 mm 6 mps 734 mmHg 83%
    15:00 +1°C° 0.9 mm 5 mps 734 mmHg 84%
    16:00 +1°C° 0.9 mm 5 mps 733 mmHg 86%
    17:00 +1°C° 0 mm 4 mps 733 mmHg 87%
    18:00 0°C° 0 mm 4 mps 733 mmHg 87%
    19:00 0°C° 0 mm 4 mps 733 mmHg 88%
    20:00 +1°C° 0 mm 3 mps 733 mmHg 89%
    21:00 0°C° 0 mm 3 mps 733 mmHg 90%
    22:00 0°C° 0 mm 3 mps 733 mmHg 91%
    23:00 0°C° 0 mm 3 mps 733 mmHg 92%

    Tomorrow, 15 December, Friday

    Time Temperature Precipitation Wind Pressure Humidity
    00:00 0°C° 0 mm 3 mps 733 mmHg 92%
    01:00 -1°C° 0 mm 2 mps 733 mmHg 93%
    02:00 -1°C° 0 mm 2 mps 733 mmHg 93%
    03:00 -1°C° 0 mm 2 mps 734 mmHg 93%
    04:00 -1°C° 0 mm 2 mps 734 mmHg 94%
    05:00 -1°C° 0 mm 2 mps 734 mmHg 94%
    06:00 -1°C° 0 mm 2 mps 735 mmHg 94%
    07:00 -1°C° 0 mm 2 mps 735 mmHg 94%
    08:00 -1°C° 0 mm 2 mps 736 mmHg 93%
    09:00 -1°C° 0 mm 2 mps 736 mmHg 92%
    10:00 0°C° 0 mm 3 mps 736 mmHg 91%
    11:00 +1°C° 0 mm 3 mps 737 mmHg 89%
    12:00 +2°C° 0 mm 2 mps 737 mmHg 87%
    13:00 +3°C° 0 mm 2 mps 737 mmHg 85%
    14:00 +3°C° 0 mm 2 mps 737 mmHg 87%
    15:00 +2°C° 0 mm 2 mps 738 mmHg 89%
    16:00 +2°C° 0 mm 1 mps 738 mmHg 90%
    17:00 +2°C° 0 mm 1 mps 738 mmHg 91%
    18:00 +2°C° 0 mm 1 mps 739 mmHg 91%
    19:00 +1°C° 0 mm 1 mps 739 mmHg 92%
    20:00 +1°C° 0 mm 1 mps 740 mmHg 93%
    21:00 +1°C° 0 mm 1 mps 740 mmHg 94%
    22:00 +1°C° 0 mm 1 mps 741 mmHg 95%
    23:00 -1°C° 0 mm 2 mps 741 mmHg 95%

    Day after tomorrow, 16 December, Saturday

    Time Temperature Precipitation Wind Pressure Humidity
    00:00 -1°C° 0 mm 2 mps 742 mmHg 96%
    01:00 -1°C° 0 mm 2 mps 742 mmHg 97%
    02:00 +1°C° 0 mm 2 mps 742 mmHg 96%
    03:00 +1°C° 0 mm 2 mps 743 mmHg 96%
    04:00 0°C° 0 mm 3 mps 743 mmHg 96%
    05:00 0°C° 0.1 mm 3 mps 743 mmHg 96%
    06:00 0°C° 0.1 mm 3 mps 744 mmHg 95%
    07:00 0°C° 0.1 mm 3 mps 744 mmHg 95%
    08:00 0°C° 0.1 mm 3 mps 744 mmHg 94%
    09:00 -1°C° 0.1 mm 4 mps 745 mmHg 92%
    10:00 -1°C° 0.1 mm 4 mps 745 mmHg 91%
    11:00 0°C° 0 mm 4 mps 746 mmHg 88%
    12:00 0°C° 0 mm 5 mps 746 mmHg 85%
    13:00 +1°C° 0 mm 5 mps 746 mmHg 82%
    14:00 +1°C° 0.1 mm 5 mps 746 mmHg 83%
    15:00 0°C° 0.1 mm 4 mps 747 mmHg 85%
    16:00 0°C° 0.1 mm 4 mps 747 mmHg 86%
    17:00 -1°C° 0 mm 4 mps 748 mmHg 86%
    18:00 -1°C° 0 mm 4 mps 748 mmHg 87%
    19:00 -1°C° 0 mm 4 mps 749 mmHg 87%
    20:00 -1°C° 0 mm 4 mps 750 mmHg 88%
    21:00 -2°C° 0 mm 4 mps 750 mmHg 88%
    22:00 -2°C° 0 mm 4 mps 751 mmHg 88%
    23:00 -2°C° 0 mm 4 mps 751 mmHg 88%

    17 December, Sunday

    Time Temperature Precipitation Wind Pressure Humidity
    00:00 -2°C° 0 mm 4 mps 752 mmHg 88%
    01:00 -2°C° 0 mm 4 mps 752 mmHg 88%
    02:00 -2°C° 0 mm 4 mps 753 mmHg 89%
    03:00 -2°C° 0 mm 4 mps 753 mmHg 89%
    04:00 -2°C° 0 mm 4 mps 753 mmHg 89%
    05:00 -2°C° 0 mm 4 mps 754 mmHg 89%
    06:00 -2°C° 0 mm 4 mps 754 mmHg 90%
    07:00 -2°C° 0 mm 4 mps 755 mmHg 90%
    08:00 -2°C° 0 mm 4 mps 755 mmHg 89%
    09:00 -2°C° 0 mm 4 mps 756 mmHg 89%
    10:00 -1°C° 0 mm 4 mps 756 mmHg 88%
    11:00 -1°C° 0 mm 4 mps 757 mmHg 87%
    12:00 0°C° 0 mm 4 mps 757 mmHg 85%
    13:00 +1°C° 0 mm 4 mps 757 mmHg 84%
    14:00 0°C° 0 mm 4 mps 757 mmHg 87%
    15:00 0°C° 0 mm 4 mps 757 mmHg 89%
    16:00 0°C° 0 mm 4 mps 758 mmHg 92%
    17:00 0°C° 0.1 mm 4 mps 758 mmHg 92%
    18:00 0°C° 0.1 mm 4 mps 758 mmHg 92%
    19:00 0°C° 0.1 mm 4 mps 758 mmHg 93%
    20:00 0°C° 0 mm 4 mps 758 mmHg 93%
    21:00 0°C° 0 mm 4 mps 759 mmHg 92%
    22:00 0°C° 0 mm 5 mps 759 mmHg 92%
    23:00 0°C° 0.3 mm 5 mps 758 mmHg 91%

    18 December, Monday

    Time Temperature Precipitation Wind Pressure Humidity
    00:00 -1°C° 0.3 mm 6 mps 757 mmHg 90%
    01:00 +1°C° 0.3 mm 6 mps 756 mmHg 90%
    02:00 0°C° 1 mm 7 mps 755 mmHg 90%
    03:00 +1°C° 1 mm 8 mps 754 mmHg 91%
    04:00 +2°C° 1 mm 9 mps 753 mmHg 91%
    05:00 +2°C° 1.6 mm 8 mps 753 mmHg 92%
    06:00 +4°C° 1.6 mm 8 mps 753 mmHg 92%
    07:00 +4°C° 1.6 mm 8 mps 752 mmHg 93%
    08:00 +4°C° 0.2 mm 7 mps 753 mmHg 91%
    09:00 +3°C° 0.2 mm 7 mps 753 mmHg 90%
    10:00 +3°C° 0.2 mm 6 mps 753 mmHg 88%
    11:00 +3°C° 0 mm 6 mps 753 mmHg 87%
    12:00 +3°C° 0 mm 7 mps 754 mmHg 85%
    13:00 +4°C° 0 mm 7 mps 754 mmHg 84%
    14:00 +3°C° 0 mm 7 mps 754 mmHg 84%
    15:00 +3°C° 0 mm 6 mps 755 mmHg 84%
    16:00 +3°C° 0 mm 6 mps 755 mmHg 84%
    17:00 +3°C° 0 mm 6 mps 756 mmHg 86%
    18:00 +2°C° 0 mm 5 mps 757 mmHg 87%
    19:00 +2°C° 0 mm 5 mps 758 mmHg 89%
    20:00 +3°C° 0 mm 4 mps 759 mmHg 89%
    21:00 +1°C° 0 mm 4 mps 760 mmHg 89%
    22:00 +2°C° 0 mm 3 mps 760 mmHg 90%
    23:00 +2°C° 0 mm 2 mps 761 mmHg 91%

    19 December, Tuesday

    Time Temperature Precipitation Wind Pressure Humidity
    00:00 +2°C° 0 mm 2 mps 761 mmHg 92%
    01:00 +2°C° 0 mm 1 mps 762 mmHg 92%
    02:00 +2°C° 0 mm 1 mps 762 mmHg 93%
    03:00 +2°C° 0 mm 1 mps 763 mmHg 94%
    04:00 0°C° 0 mm 0 mps 763 mmHg 94%
    05:00 0°C° 0 mm 0 mps 764 mmHg 94%
    06:00 0°C° 0 mm 0 mps 764 mmHg 94%
    07:00 0°C° 0 mm 0 mps 764 mmHg 94%
    08:00 0°C° 0 mm 0 mps 765 mmHg 93%
    09:00 +2°C° 0 mm 1 mps 765 mmHg 91%
    10:00 +2°C° 0 mm 1 mps 765 mmHg 90%
    11:00 +3°C° 0 mm 1 mps 765 mmHg 88%
    12:00 +3°C° 0 mm 1 mps 765 mmHg 85%
    13:00 +4°C° 0 mm 1 mps 765 mmHg 82%
    14:00 +3°C° 0 mm 1 mps 764 mmHg 85%
    15:00 +3°C° 0 mm 1 mps 764 mmHg 88%
    16:00 +3°C° 0 mm 1 mps 764 mmHg 90%
    17:00 +2°C° 0 mm 1 mps 764 mmHg 91%
    18:00 +2°C° 0 mm 1 mps 764 mmHg 92%
    19:00 +2°C° 0 mm 1 mps 764 mmHg 92%
    20:00 +2°C° 0 mm 1 mps 764 mmHg 92%
    21:00 +1°C° 0 mm 1 mps 764 mmHg 92%
    22:00 +1°C° 0 mm 1 mps 764 mmHg 92%
    23:00 +1°C° 0 mm 1 mps 764 mmHg 90%
    Show more